Date,TemperatureHighF,TemperatureAvgF,TemperatureLowF,DewpointHighF,DewpointAvgF,DewpointLowF,HumidityHigh,HumidityAvg,HumidityLow,PressureMaxIn,PressureMinIn,WindSpeedMaxMPH,WindSpeedAvgMPH,GustSpeedMaxMPH,PrecipitationSumIn
2013-1-1,56,50,42,55,45,34,96,82,68,30.27,29.98,2,0,2,0.04
2013-1-2,47,40,36,34,28,26,76,61,49,30.33,30.24,2,0,2,0.00
2013-1-3,48,40,30,31,28,26,88,64,48,30.45,30.30,2,0,2,0.00
2013-1-4,45,43,40,41,40,36,95,88,78,30.51,30.36,1,0,2,0.14
2013-1-5,66,48,37,45,39,33,95,76,43,30.39,30.21,3,0,3,0.00
2013-1-6,73,48,34,41,33,27,95,62,26,30.39,30.27,2,0,3,0.00
2013-1-7,62,46,32,39,32,25,80,60,38,30.33,30.06,3,0,6,0.00
2013-1-8,54,51,48,53,49,39,96,91,62,30.09,29.89,2,0,3,0.36
2013-1-9,60,57,51,58,56,49,97,95,89,30.06,29.86,4,0,5,0.87
2013-1-10,74,57,48,50,45,41,97,68,36,30.06,29.98,6,1,8,0.00
2013-1-11,80,62,45,67,54,40,93,76,46,30.06,29.83,5,1,10,0.00
2013-1-12,76,68,50,69,61,33,95,80,48,29.92,29.71,4,1,7,0.00
2013-1-13,65,48,40,36,28,21,58,46,33,30.18,29.92,2,0,4,0.00
2013-1-14,64,45,37,36,25,20,53,47,34,30.27,30.09,2,0,3,0.00
2013-1-15,44,38,36,35,31,22,90,75,50,30.24,30.09,2,0,4,0.00
2013-1-16,64,43,32,30,16,-10,56,40,6,30.36,30.18,5,0,9,0.00
2013-1-17,78,52,33,42,29,18,63,44,22,30.48,30.27,4,0,6,0.00
2013-1-18,74,51,34,40,31,28,84,51,22,30.51,30.30,5,0,7,0.00
2013-1-19,78,54,38,47,39,30,93,60,34,30.33,30.15,4,1,9,0.00
2013-1-20,84,58,39,53,42,36,90,61,30,30.27,30.09,4,0,8,0.00
2013-1-21,85,61,46,54,45,38,94,59,33,30.27,30.12,4,0,4,0.00
2013-1-22,80,60,43,52,43,36,77,56,35,30.33,30.18,5,0,8,0.00
2013-1-23,81,64,53,58,53,47,94,70,42,30.33,30.18,5,1,6,0.00
2013-1-24,87,70,61,62,59,56,91,70,41,30.27,30.12,4,1,9,0.00
2013-1-25,88,70,59,62,58,46,90,68,40,30.18,30.04,5,1,6,0.00
2013-1-26,73,60,54,60,53,46,90,78,57,30.21,30.06,0,0,1,0.00
2013-1-27,81,69,56,66,62,52,96,80,52,30.12,29.95,6,2,13,0.00
2013-1-28,80,73,70,68,66,63,90,79,61,30.06,29.92,7,2,17,0.00
2013-1-29,87,72,59,67,56,24,88,61,25,29.95,29.53,6,2,12,0.00
2013-1-30,68,54,39,29,12,-11,41,23,4,30.21,29.83,8,1,12,0.00
2013-1-31,76,53,33,29,3,-18,59,24,2,30.30,30.18,6,1,7,0.00
2013-2-1,80,61,45,45,33,20,57,37,20,30.36,30.18,6,1,11,0.00
2013-2-2,87,72,57,54,46,36,68,41,31,30.30,30.18,4,0,10,0.00
2013-2-3,83,64,46,45,29,-16,60,36,2,30.36,30.04,5,1,8,0.00
2013-2-4,82,65,58,60,54,45,90,69,41,30.06,29.86,5,1,8,0.00
2013-2-5,67,58,52,55,49,42,91,75,41,29.98,29.89,1,0,3,0.00
2013-2-6,85,68,61,62,57,48,93,71,39,30.04,29.86,4,0,8,0.00
2013-2-7,91,70,61,61,54,41,87,60,30,30.09,29.86,4,1,6,0.00
2013-2-8,83,64,50,42,24,-18,57,32,2,30.24,30.06,1,0,3,0.00
2013-2-9,70,60,55,67,54,31,95,82,36,30.09,29.80,6,1,10,0.00
2013-2-10,76,64,57,67,48,35,94,59,31,30.04,29.74,5,0,9,0.05
2013-2-11,62,56,54,50,45,39,81,67,48,30.09,30.01,1,0,2,0.04
2013-2-12,77,64,53,59,45,27,96,55,23,30.06,29.83,4,0,6,0.00
2013-2-13,75,55,42,42,33,26,68,46,23,30.15,30.06,4,0,6,0.00
2013-2-14,79,57,36,43,31,-10,79,45,3,30.15,30.01,5,1,7,0.00
2013-2-15,76,54,41,43,33,22,71,46,31,30.42,30.06,1,0,2,0.00
2013-2-16,75,54,35,32,16,-18,55,30,2,30.45,30.21,5,0,7,0.00
2013-2-17,76,59,38,50,33,22,64,40,15,30.21,29.98,8,2,13,0.00
2013-2-18,86,70,60,61,40,-18,79,47,2,30.09,29.83,6,2,10,0.00
2013-2-19,79,62,46,38,21,-18,49,27,2,30.30,30.06,4,0,8,0.00
2013-2-20,64,59,55,63,46,30,95,66,34,30.15,29.68,3,0,8,0.00
2013-2-21,82,69,52,68,32,-18,95,46,2,29.89,29.62,8,2,12,0.00
2013-2-22,71,54,47,40,32,26,60,43,29,30.09,29.89,2,0,3,0.00
2013-2-23,81,58,42,44,30,9,50,36,10,30.09,29.89,4,0,5,0.00
2013-2-24,79,60,39,58,43,29,85,56,35,29.95,29.62,6,1,12,0.00
2013-2-25,68,56,48,59,30,-10,89,44,5,29.86,29.59,14,5,24,0.00
2013-2-26,75,56,42,36,18,-18,49,29,2,30.01,29.86,6,1,8,0.00
2013-2-27,73,58,46,38,18,-13,42,26,3,30.21,29.89,5,0,8,0.00
2013-2-28,72,54,44,35,15,-13,44,28,3,30.33,30.18,2,0,5,0.00
2013-3-1,78,55,35,33,12,-18,51,28,2,30.30,30.12,6,0,8,0.00
2013-3-2,70,54,42,32,17,-13,50,31,3,30.42,30.24,2,0,3,0.00
2013-3-3,80,59,40,39,18,-18,47,29,2,30.27,29.95,5,2,11,0.00
2013-3-4,91,70,56,53,46,38,76,47,19,29.95,29.71,6,1,10,0.00
2013-3-5,82,56,52,40,33,32,46,43,23,30.18,29.74,1,1,2,0.00
2013-3-6,74,60,41,32,0,-18,46,12,2,30.45,30.18,2,0,3,0.00
2013-3-7,76,60,42,51,38,17,63,46,30,30.24,30.06,5,1,10,0.00
2013-3-8,70,63,58,64,56,49,95,81,64,30.15,30.01,5,1,8,0.17
2013-3-9,74,68,63,67,63,58,92,84,70,30.04,29.68,7,2,12,0.04
2013-3-10,75,63,51,65,44,28,94,54,29,30.15,29.74,4,0,6,0.54
2013-3-11,75,55,39,32,16,-18,66,34,2,30.21,30.01,5,0,8,0.00
2013-3-12,84,61,39,42,19,-18,62,32,2,30.27,30.06,6,1,10,0.00
2013-3-13,83,64,46,44,30,-15,62,34,2,30.45,30.24,4,0,7,0.00
2013-3-14,83,66,50,53,45,37,77,49,27,30.39,30.21,5,1,9,0.00
2013-3-15,68,59,54,55,49,42,87,71,39,30.27,30.01,3,1,4,0.00
2013-3-16,88,71,59,61,55,49,88,61,29,30.06,29.77,7,2,10,0.00
2013-3-17,87,74,66,64,60,53,85,64,37,29.86,29.68,5,1,9,0.00
2013-3-18,98,78,67,65,54,39,86,53,17,30.01,29.71,4,0,6,0.00
2013-3-19,88,70,54,61,50,40,66,50,38,30.04,29.89,5,0,9,0.00
2013-3-20,79,65,55,54,47,35,90,56,29,30.27,30.01,2,0,5,0.13
2013-3-21,77,66,55,60,50,38,79,58,45,30.06,29.65,6,1,12,0.00
2013-3-22,88,73,60,69,60,44,93,67,41,29.83,29.65,4,0,8,0.00
2013-3-23,81,64,55,59,51,44,79,64,44,29.83,29.62,2,0,5,0.00
2013-3-24,64,62,61,58,56,55,84,81,77,29.80,29.74,1,0,1,0.00
2013-3-25,66,57,40,25,6,-11,41,17,4,30.42,30.24,1,0,3,0.00
2013-3-26,70,54,35,29,8,-13,53,23,4,30.48,30.30,3,0,6,0.00
2013-3-27,72,58,39,45,33,10,58,41,18,30.33,30.15,5,1,10,0.00
2013-3-28,75,65,56,57,53,44,77,66,49,30.21,30.12,4,1,6,0.00
2013-3-29,80,69,60,61,55,52,89,64,41,30.18,30.06,5,1,7,0.00
2013-3-30,86,73,66,64,60,56,87,66,39,30.12,29.89,3,0,5,0.00
2013-3-31,79,77,74,66,64,62,72,63,61,29.98,29.92,1,0,2,0.00
2013-4-1,74,64,62,64,59,58,89,85,70,30.06,29.95,0,0,0,0.00
2013-4-2,66,64,63,64,63,32,95,94,87,30.04,29.83,6,0,6,1.12
2013-4-3,63,54,51,62,52,48,97,94,90,30.18,29.86,6,0,6,0.29
2013-4-4,65,53,49,48,43,38,90,69,49,30.21,30.09,3,0,5,0.00
2013-4-5,73,58,40,49,42,37,90,59,36,30.27,30.06,3,0,3,0.00
2013-4-6,82,67,54,58,52,46,88,62,40,30.12,29.89,3,1,6,0.00
2013-4-7,84,71,64,64,60,58,89,71,44,29.98,29.77,4,1,7,0.00
2013-4-8,76,71,68,67,64,60,88,79,65,29.86,29.71,3,0,5,0.00
2013-4-9,86,76,71,69,67,65,86,74,52,29.74,29.62,3,1,6,0.00
2013-4-10,76,59,47,69,52,40,92,78,60,29.98,29.68,3,0,6,0.07
2013-4-11,68,56,45,42,39,37,82,56,36,30.04,29.83,2,0,5,0.00
2013-4-12,81,64,46,47,43,40,87,53,24,30.06,29.89,3,0,4,0.00
2013-4-13,78,67,53,59,50,47,83,57,36,30.01,29.80,3,0,5,0.00
2013-4-14,87,73,59,68,60,51,88,66,42,29.86,29.65,3,0,3,0.00
2013-4-15,88,78,70,68,66,62,89,69,46,29.86,29.71,3,0,4,0.00
2013-4-16,86,78,71,71,66,63,85,69,51,29.95,29.83,3,0,5,0.00
2013-4-17,84,77,74,72,70,67,90,78,60,29.95,29.71,3,0,5,0.00
2013-4-18,76,64,52,72,54,36,90,70,45,30.12,29.68,3,0,5,0.14
2013-4-19,69,58,47,36,26,-9,55,34,4,30.30,30.09,3,0,6,0.00
2013-4-20,73,59,40,42,31,1,75,41,6,30.24,30.01,3,0,5,0.00
2013-4-21,79,65,50,55,49,42,82,57,40,30.18,30.01,2,0,4,0.00
2013-4-22,84,72,59,60,57,54,92,63,39,30.12,29.89,3,0,5,0.00
2013-4-23,79,68,53,66,57,40,83,70,48,30.15,29.86,2,0,4,0.00
2013-4-24,65,56,47,41,36,31,71,49,37,30.27,30.12,2,0,6,0.00
2013-4-25,70,63,58,45,41,37,51,44,37,30.36,30.18,2,0,4,0.00
2013-4-26,79,70,62,69,62,41,94,77,39,30.18,30.01,2,0,4,0.00
2013-4-27,79,72,41,69,67,32,91,85,38,30.12,29.97,1,0,2,0.00
2013-4-28,84,74,64,67,62,56,95,69,40,30.06,29.89,3,0,4,0.00
2013-4-29,85,73,68,68,64,57,91,75,45,29.98,29.83,3,0,4,0.00
2013-4-30,82,74,65,66,63,61,91,73,49,29.89,29.74,2,0,5,0.00
2013-5-1,86,78,69,68,65,63,87,68,46,30.01,29.80,2,0,4,0.00
2013-5-2,79,59,49,64,46,33,80,64,49,30.36,29.95,5,1,7,0.00
2013-5-3,70,57,46,34,28,-4,52,36,5,30.36,30.06,4,0,6,0.00
2013-5-4,84,67,48,39,22,-14,58,28,2,30.09,29.89,3,0,4,0.00
2013-5-5,77,67,55,47,40,32,47,38,32,30.15,30.01,2,0,3,0.00
2013-5-6,74,64,51,50,46,42,78,55,39,30.15,30.01,1,0,2,0.00
2013-5-7,85,70,51,56,50,46,85,54,30,30.12,29.95,2,0,3,0.00
2013-5-8,85,74,66,64,60,51,87,64,43,30.04,29.92,3,0,4,0.00
2013-5-9,77,72,68,70,66,62,90,82,73,29.98,29.89,3,0,4,0.00
2013-5-10,85,72,64,67,63,59,95,76,42,30.06,29.80,7,0,7,1.50
2013-5-11,82,72,63,65,57,45,96,65,34,30.15,30.04,2,0,3,0.00
2013-5-12,82,71,59,56,50,43,75,51,31,30.27,30.12,2,0,3,0.00
2013-5-13,86,72,53,55,50,45,80,48,29,30.27,30.15,2,0,3,0.00
2013-5-14,85,75,63,66,60,55,83,62,41,30.21,30.01,2,0,4,0.00
2013-5-15,86,76,68,72,68,64,94,78,57,30.09,29.86,3,1,4,0.00
2013-5-16,93,80,71,72,69,65,90,71,41,29.92,29.74,2,0,4,0.00
2013-5-17,93,82,76,74,71,68,86,69,46,29.95,29.80,2,0,4,0.00
2013-5-18,94,82,73,73,67,60,88,63,38,29.95,29.83,4,1,4,0.00
2013-5-19,93,82,74,72,68,63,84,65,41,29.89,29.77,3,1,4,0.00
2013-5-20,92,82,74,72,69,64,87,66,42,29.89,29.74,3,1,4,0.00
2013-5-21,89,81,73,73,69,60,85,69,52,29.92,29.71,2,0,4,0.00
2013-5-22,92,79,64,72,63,57,88,60,35,29.98,29.83,2,0,3,0.00
2013-5-23,90,82,76,73,71,68,83,70,50,30.06,29.92,3,0,6,0.00
2013-5-24,84,75,69,74,70,67,95,86,69,30.15,30.04,2,0,3,2.16
2013-5-25,74,71,70,72,70,68,95,95,95,30.18,30.06,1,0,2,0.33
2013-5-28,76,76,76,71,71,71,85,85,85,29.92,29.92,1,1,0,0.00
2013-5-29,87,80,74,73,71,69,88,75,57,29.95,29.74,3,1,6,0.00
2013-5-30,91,83,76,73,71,68,86,70,50,29.89,29.77,2,0,4,0.00
2013-5-31,92,83,78,75,72,70,86,71,49,29.95,29.77,2,1,4,0.00
2013-6-1,95,85,77,74,72,68,85,66,43,29.92,29.83,3,0,4,0.00
2013-6-2,88,80,70,73,65,56,89,64,36,30.09,29.92,2,0,5,0.04
2013-6-3,93,80,66,68,62,57,88,59,32,30.04,29.86,3,0,4,0.00
2013-6-4,94,83,72,70,66,60,89,60,33,29.95,29.83,2,0,4,0.00
2013-6-5,94,83,71,70,66,62,87,59,36,29.92,29.80,2,0,5,0.00
2013-6-6,96,84,73,73,67,61,85,59,35,29.98,29.77,2,0,4,0.00
2013-6-7,87,80,73,66,59,52,73,52,33,30.04,29.89,2,0,3,0.00
2013-6-8,91,79,64,70,62,53,80,57,40,29.98,29.83,2,0,4,0.00
2013-6-9,91,82,70,74,71,65,91,71,48,30.04,29.86,3,0,4,0.29
2013-6-10,96,84,73,74,68,61,90,63,34,30.04,29.95,2,0,4,0.00
2013-6-11,93,84,76,74,70,62,88,66,41,30.06,29.98,2,0,4,0.00
2013-6-12,95,84,76,75,71,64,89,65,42,30.09,29.98,2,0,4,0.00
2013-6-13,96,83,78,76,71,62,87,68,40,30.12,29.95,3,0,4,0.00
2013-6-14,91,84,77,76,73,69,86,70,51,30.04,29.92,2,0,4,0.00
2013-6-15,86,82,80,76,75,73,86,80,66,30.06,29.95,1,0,2,0.00
2013-6-16,97,87,77,74,70,63,86,60,36,30.06,29.92,2,0,4,0.00
2013-6-17,98,87,78,74,69,62,83,59,32,30.04,29.89,2,0,4,0.00
2013-6-18,95,85,74,73,68,60,83,59,34,30.06,29.89,2,0,4,0.00
2013-6-19,98,88,79,74,68,61,85,56,34,30.04,29.92,2,0,4,0.00
2013-6-20,97,86,76,74,68,60,87,57,32,30.09,29.95,2,0,4,0.00
2013-6-21,98,87,78,75,67,57,86,55,29,30.09,29.98,2,0,4,0.00
2013-6-22,98,87,78,74,67,60,83,55,31,30.06,29.92,3,0,4,0.00
2013-6-23,97,86,78,74,66,55,83,55,29,30.04,29.92,2,0,4,0.00
2013-6-24,98,87,77,74,68,61,86,58,32,30.06,29.92,2,1,4,0.00
2013-6-25,99,88,79,75,67,59,84,55,29,30.06,29.89,2,1,4,0.00
2013-6-26,100,88,79,73,68,62,80,55,29,30.04,29.89,2,0,4,0.00
2013-6-27,101,89,78,74,66,54,79,51,25,30.06,29.92,2,0,4,0.00
2013-6-28,104,91,78,73,65,58,81,47,25,30.04,29.83,2,0,3,0.00
2013-6-29,107,94,79,68,61,51,59,35,16,29.92,29.77,2,0,6,0.00
2013-6-30,95,84,72,71,65,54,91,57,28,29.98,29.83,2,0,3,0.37
2013-7-1,91,84,56,67,54,35,57,37,29,30.04,29.92,2,0,3,0.00
2013-7-2,94,81,67,59,54,47,68,42,23,30.09,29.98,2,0,3,0.00
2013-7-3,96,83,68,59,51,43,61,35,18,30.06,29.92,2,0,2,0.00
2013-7-4,95,84,70,69,59,52,77,46,27,30.04,29.89,2,0,3,0.00
2013-7-5,99,87,72,71,61,56,78,46,26,30.04,29.86,2,0,5,0.00
2013-7-6,99,85,41,72,66,32,79,55,27,29.98,29.86,2,0,4,14.39
2013-7-7,99,86,78,74,70,63,80,60,32,30.04,29.89,3,0,4,0.00
2013-7-8,89,83,78,78,72,62,87,71,41,30.15,30.01,2,0,3,0.00
2013-7-9,99,87,78,75,70,63,86,60,32,30.18,30.01,2,0,4,0.00
2013-7-10,100,88,77,74,69,61,86,56,30,30.12,29.95,2,0,3,0.00
2013-7-11,99,89,78,74,66,58,81,52,27,30.06,29.89,2,0,4,0.00
2013-7-12,101,90,77,72,65,59,79,48,27,30.01,29.89,2,0,4,0.00
2013-7-13,104,92,77,68,63,56,69,41,22,30.01,29.86,2,0,3,0.00
2013-7-14,96,87,80,70,64,56,67,47,30,29.95,29.62,2,0,5,0.00
2013-7-15,80,75,72,75,71,66,93,87,64,29.65,28.71,2,0,3,0.25
2013-7-16,92,80,72,76,70,62,93,73,39,28.74,27.88,2,0,5,0.00
2013-7-17,89,79,75,75,72,70,90,81,60,28.00,27.02,2,0,3,0.00
2013-7-21,95,88,81,76,73,67,78,63,41,29.39,29.33,2,0,3,0.00
2013-7-22,98,87,78,76,72,64,88,64,35,29.47,29.33,3,0,6,0.00
2013-7-23,98,87,79,75,70,61,83,59,32,29.44,29.33,2,0,4,0.00
2013-7-24,97,87,78,75,70,64,85,60,35,29.44,29.30,2,0,4,0.00
2013-7-25,100,89,78,74,68,59,85,54,29,29.47,29.39,2,0,4,0.00
2013-7-26,99,88,78,76,70,63,87,59,32,29.47,29.30,2,0,4,0.00
2013-7-27,90,82,75,78,72,67,91,74,52,29.44,29.33,2,0,5,0.10
2013-7-28,98,86,77,76,69,64,81,59,36,29.42,29.30,3,0,6,0.00
2013-7-29,100,88,79,75,68,58,81,55,27,29.47,29.36,3,1,5,0.00
2013-7-30,99,85,79,75,72,63,82,67,31,29.53,29.44,3,0,5,0.00
2013-7-31,99,82,77,73,70,63,85,73,31,29.50,29.44,1,0,2,0.00
2013-8-5,102,93,78,74,66,59,83,44,26,29.47,29.30,2,1,3,0.17
2013-8-6,103,90,78,74,68,59,80,53,25,29.42,29.24,2,1,4,0.00
2013-8-7,103,90,79,73,69,56,80,53,22,29.39,29.21,3,0,4,0.00
2013-8-8,104,90,79,73,66,52,79,50,19,29.36,29.21,3,0,4,0.00
2013-8-9,102,89,77,74,65,54,84,51,22,29.42,29.30,2,0,3,0.00
2013-8-10,103,90,79,71,67,62,74,49,27,29.50,29.36,4,0,4,0.00
2013-8-11,100,88,79,74,70,63,78,58,31,29.53,29.36,2,0,3,0.00
2013-8-12,99,88,77,73,68,62,85,55,31,29.53,29.39,2,0,3,0.00
2013-8-13,101,90,79,74,66,58,83,50,26,29.47,29.30,2,0,4,0.00
2013-8-14,103,88,80,73,68,63,76,54,28,29.47,29.33,3,0,3,0.00
2013-8-15,95,82,73,74,71,32,93,72,41,29.97,29.36,3,0,4,1.50
2013-8-16,94,82,73,76,69,59,93,69,34,29.50,29.36,2,0,2,0.00
2013-8-17,94,84,73,70,63,53,87,54,30,29.50,29.36,1,0,3,0.00
2013-8-18,96,83,69,69,59,54,78,48,28,29.50,29.39,2,0,2,0.00
2013-8-19,95,85,72,68,61,55,77,48,29,29.50,29.36,2,0,3,0.00
2013-8-20,97,85,73,71,65,58,82,54,29,29.47,29.36,3,0,5,0.00
2013-8-21,96,85,76,75,69,64,85,61,35,29.50,29.42,2,0,6,0.00
2013-8-22,97,87,76,75,69,63,85,58,36,29.53,29.36,2,0,3,0.00
2013-8-23,99,88,77,74,68,61,86,55,30,29.47,29.33,2,0,3,0.00
2013-8-24,101,90,79,72,67,62,75,50,30,29.50,29.36,2,0,3,0.00
2013-8-25,97,87,78,73,68,63,77,54,37,29.50,29.44,3,0,4,0.00
2013-8-26,92,82,75,73,70,65,89,69,44,29.59,29.47,2,0,4,0.00
2013-8-27,88,80,75,76,69,58,89,72,40,29.59,29.47,2,0,4,0.00
2013-8-28,97,85,74,75,68,62,90,61,33,29.56,29.42,2,0,4,0.00
2013-8-29,101,88,76,71,65,59,80,50,27,29.53,29.39,2,0,3,0.00
2013-8-30,104,91,78,67,63,58,66,41,25,29.47,29.30,2,0,4,0.00
2013-8-31,103,91,79,71,66,60,71,46,28,29.42,29.24,2,0,3,0.00
2013-9-1,101,90,77,73,66,59,78,50,30,29.39,29.24,2,0,3,0.00
2013-9-2,102,90,78,74,67,58,81,51,27,29.44,29.24,2,0,3,0.00
2013-9-3,102,90,77,69,64,59,72,45,26,29.47,29.30,2,0,3,0.00
2013-9-4,101,87,54,75,68,51,92,57,30,29.47,29.36,2,0,3,0.00
2013-9-5,98,85,74,74,69,62,88,62,32,29.56,29.42,2,0,3,0.00
2013-9-6,98,87,76,74,69,61,84,58,32,29.53,29.36,2,0,3,0.00
2013-9-7,98,84,77,74,70,63,86,67,32,29.47,29.33,4,0,10,0.00
2013-9-8,94,82,75,75,71,65,89,70,41,29.47,29.30,1,0,3,0.00
2013-9-9,94,80,73,74,70,62,89,73,40,29.47,29.36,3,0,6,0.00
2013-9-10,94,81,74,76,71,64,91,73,40,29.53,29.42,2,0,5,0.00
2013-9-11,96,85,76,74,69,60,88,62,33,29.56,29.42,2,0,3,0.00
2013-9-12,96,85,74,74,67,61,88,58,33,29.53,29.36,1,0,3,0.00
2013-9-13,99,87,74,72,63,57,82,49,28,29.42,29.24,2,0,3,0.00
2013-9-14,98,86,74,70,64,60,72,50,32,29.42,29.27,2,0,3,0.00
2013-9-15,95,86,76,74,69,61,82,59,35,29.47,29.36,2,0,6,0.00
2013-9-16,95,84,79,76,72,65,87,68,40,29.53,29.39,2,0,6,0.00
2013-9-17,92,83,75,76,72,66,91,71,43,29.53,29.36,2,0,3,0.00
2013-9-18,96,85,76,75,69,61,87,61,33,29.47,29.30,2,0,3,0.00
2013-9-19,94,84,79,78,73,68,83,70,45,29.42,29.24,2,0,3,0.00
2013-9-20,81,76,72,77,73,70,95,91,79,29.33,29.24,2,0,3,2.20
2013-9-21,85,75,67,70,61,47,93,65,33,29.42,29.27,1,0,3,0.00
2013-9-22,86,72,60,58,51,45,82,51,29,29.36,29.21,2,0,4,0.00
2013-9-23,90,74,59,59,54,48,86,54,25,29.30,29.18,2,0,3,0.00
2013-9-24,96,80,66,65,59,53,80,52,27,29.39,29.27,2,0,4,0.00
2013-9-25,97,82,68,65,59,54,80,49,29,29.36,29.24,2,0,3,0.00
2013-9-26,93,82,70,72,61,53,77,51,31,29.36,29.24,3,0,3,0.00
2013-9-27,91,82,78,78,74,71,86,78,54,29.39,29.27,2,0,4,0.00
2013-9-28,94,82,76,77,74,68,92,79,45,29.44,29.33,2,0,3,0.21
2013-9-29,76,71,67,73,68,65,94,89,73,29.50,29.36,1,0,2,0.46
2013-9-30,89,75,64,66,60,52,93,65,33,29.39,29.24,2,0,3,0.00
2013-10-1,90,79,67,73,68,61,93,72,42,29.39,29.27,2,0,3,0.00
2013-10-2,91,82,76,75,71,66,89,72,47,29.42,29.30,1,0,3,0.00
2013-10-3,93,83,78,75,70,65,88,67,43,29.42,29.27,2,0,4,0.00
2013-10-4,92,82,74,74,70,65,90,70,43,29.39,29.30,2,0,4,0.00
2013-10-5,91,78,65,73,63,32,90,64,40,29.97,29.33,1,0,4,4.53
2013-10-6,82,67,56,56,46,36,92,53,21,29.59,29.47,3,0,5,0.20
2013-10-7,86,67,52,51,45,39,75,49,22,29.59,29.47,1,0,2,0.00
2013-10-8,86,68,53,53,50,47,85,57,27,29.53,29.42,2,0,3,0.00
2013-10-13,75,73,71,73,71,32,95,93,90,29.97,29.47,1,0,2,0.00
2013-10-14,79,75,72,76,72,69,94,90,80,29.53,29.36,2,0,3,0.28
2013-10-15,86,76,62,73,69,56,93,80,57,29.47,29.33,2,0,4,0.05
2013-10-16,63,59,56,60,57,54,97,92,83,29.50,29.42,2,0,3,1.00
2013-10-17,76,63,53,59,51,47,90,69,38,29.56,29.42,1,0,2,0.00
2013-10-18,72,65,56,64,58,53,91,80,64,29.44,29.33,1,0,2,0.00
2013-10-19,70,60,50,64,45,38,83,60,34,29.65,29.44,2,0,3,0.00
2013-10-20,75,60,44,51,44,41,91,61,32,29.53,29.36,1,0,3,0.00
2013-10-21,81,68,59,70,60,49,90,78,64,29.50,29.36,1,0,3,0.00
2013-10-22,78,65,55,57,47,40,77,56,30,29.59,29.47,1,0,3,0.00
2013-10-23,86,66,50,52,44,36,78,49,21,29.62,29.50,2,0,3,0.00
2013-10-24,86,66,51,55,48,45,84,57,29,29.68,29.53,2,0,2,0.00
2013-10-25,80,67,53,60,55,50,90,69,47,29.74,29.59,2,0,3,0.00
2013-10-26,81,71,64,65,61,58,83,71,49,29.65,29.47,2,0,3,0.00
2013-10-27,75,69,64,66,64,61,93,85,69,29.56,29.44,3,0,3,0.12
2013-10-28,82,73,67,70,66,63,93,80,62,29.53,29.42,2,0,3,0.00
2013-10-29,84,76,71,72,68,66,89,77,58,29.53,29.42,3,0,4,0.00
2013-10-30,84,78,73,76,73,68,93,85,72,29.47,29.24,2,0,4,0.05
2013-10-31,81,71,57,73,58,37,96,70,22,29.36,29.21,3,0,5,2.07
2013-11-1,84,66,50,57,47,32,92,57,16,29.50,29.24,3,0,4,0.00
2013-11-2,79,64,52,45,39,32,75,42,23,29.74,29.50,2,0,4,4.98
2013-11-3,73,58,44,51,42,36,89,60,32,29.65,29.47,2,0,3,0.00
2013-11-4,68,64,60,64,59,51,90,83,70,29.50,29.42,1,0,3,0.00
2013-11-5,80,72,66,70,67,64,94,86,65,29.47,29.36,2,0,3,0.00
2013-11-6,73,62,53,70,56,44,95,81,55,29.74,29.42,3,0,4,0.50
2013-11-7,68,55,45,45,40,36,80,58,37,29.89,29.74,0,0,2,0.00
2013-11-8,70,58,50,48,42,36,84,56,33,29.83,29.59,2,0,3,0.00
2013-11-9,74,63,56,58,51,40,83,67,51,29.65,29.53,2,0,3,0.00
2013-11-10,69,65,62,59,57,53,84,75,61,29.77,29.59,1,0,2,0.00
2013-11-11,80,65,54,56,53,50,90,68,40,29.71,29.59,1,0,2,0.00
2013-11-12,60,55,46,56,44,23,92,69,41,30.04,29.65,2,0,4,0.00
2013-11-13,62,46,35,33,26,22,78,47,28,30.06,29.80,1,0,3,0.00
2013-11-14,62,49,33,48,35,28,87,61,34,29.83,29.47,2,0,3,0.00
2013-11-15,82,65,50,60,54,47,90,69,42,29.47,29.30,2,0,3,0.00
2013-11-16,82,73,63,71,66,58,93,79,58,29.39,29.18,4,0,6,0.00
2013-11-17,92,77,67,72,66,56,91,72,34,29.39,29.21,2,0,3,0.00
2013-11-18,78,69,62,66,59,49,90,71,47,29.56,29.39,1,0,2,0.00
2013-11-19,79,65,57,52,45,41,70,49,32,29.59,29.42,2,0,3,0.00
2013-11-20,72,65,59,65,55,47,92,71,61,29.47,29.33,1,0,3,0.00
2013-11-21,80,74,68,72,70,65,94,87,72,29.50,29.36,2,0,4,0.00
2013-11-22,74,45,37,71,42,34,93,90,68,29.83,29.47,2,0,4,0.46
2013-11-23,44,40,37,40,37,34,93,89,82,29.89,29.77,2,0,4,0.00
2013-11-24,44,40,36,39,32,26,89,75,55,29.92,29.74,1,0,1,0.04
2013-11-25,40,38,35,39,36,33,97,94,86,29.74,29.50,1,0,3,0.79
2013-11-26,58,44,38,37,32,26,87,65,43,29.80,29.53,4,0,6,0.00
2013-11-27,59,43,35,29,24,20,79,49,26,29.92,29.77,2,0,3,0.00
2013-11-28,64,43,32,34,28,23,87,61,25,29.89,29.74,1,0,2,0.00
2013-11-29,69,49,32,46,39,28,92,69,42,29.95,29.74,1,0,3,0.00
2013-11-30,67,58,51,56,50,43,81,73,64,29.80,29.59,1,0,2,0.00
2013-12-1,76,64,53,61,56,50,92,76,55,29.62,29.39,2,0,4,0.00
2013-12-2,90,69,56,58,51,25,91,60,11,29.39,29.12,2,0,4,0.00
2013-12-3,94,68,49,58,45,31,90,53,12,29.18,29.03,2,0,3,0.00
2013-12-4,75,66,56,66,58,42,93,78,49,29.24,29.12,1,0,3,0.00
2013-12-5,68,48,35,66,38,21,95,69,51,29.53,29.21,2,0,4,0.00
2013-12-6,38,34,31,32,27,20,91,74,61,29.86,29.47,2,0,6,0.00
2013-12-7,33,30,27,24,19,16,80,65,57,29.86,29.71,1,0,4,0.00
2013-12-8,51,37,29,36,30,23,88,74,55,29.74,29.44,2,0,2,0.00
2013-12-9,40,38,34,39,36,30,95,91,81,29.83,29.47,1,0,3,0.00
2013-12-10,56,38,29,31,24,19,83,58,33,29.92,29.74,3,0,4,0.00
2013-12-11,65,44,29,37,29,24,88,57,32,29.95,29.71,1,0,1,0.00
2013-12-12,61,45,35,38,30,26,73,56,37,30.01,29.74,1,0,3,0.00
2013-12-13,52,47,45,51,40,30,96,77,56,29.74,29.33,1,0,2,0.04
2013-12-14,54,48,41,50,40,29,95,74,51,29.74,29.30,3,0,5,0.00
2013-12-15,70,46,33,38,30,27,79,56,27,29.83,29.71,2,0,2,0.00
2013-12-20,72,69,41,68,64,32,88,82,38,29.97,29.09,4,1,8,6.84
2013-12-21,73,56,46,68,51,43,96,86,60,29.27,29.03,4,0,6,0.21
2013-12-22,65,48,40,45,36,26,95,67,37,29.80,29.27,5,0,6,0.00
2013-12-23,69,42,33,34,28,25,76,60,24,29.92,29.77,2,0,2,0.00
2013-12-31,64,48,37,34,27,24,70,46,27,29.89,29.65,3,0,4,7.05
2014-1-1,73,52,38,53,39,26,87,62,42,29.68,29.42,4,0,6,0.00
2014-1-2,53,45,36,48,31,21,87,58,50,29.74,29.53,3,0,5,0.00